| time (UTC) | temp C | wind direction | speed KPH | gust KPH | rain 1hr cm | rain 24hr cm | rain mn cm | humidity % | barometer mb |
| 20260503224853 | 25 | 260 | 9.7 | 19.3 | 0.00 | 0.00 | 0.00 | 49 | 1000.2 |
| 20260503223907 | 25 | 293 | 8.0 | 16.1 | 0.00 | 0.00 | 0.00 | 50 | 1000.2 |
| 20260503222902 | 24 | 323 | 9.7 | 20.9 | 0.00 | 0.00 | 0.00 | 50 | 1000.2 |
| 20260503221903 | 25 | 300 | 12.9 | 22.5 | 0.00 | 0.00 | 0.00 | 50 | 1000.2 |
| 20260503220904 | 25 | 269 | 11.3 | 19.3 | 0.00 | 0.00 | 0.00 | 49 | 1000.2 |
| 20260503215908 | 25 | 269 | 9.7 | 20.9 | 0.00 | 0.00 | 0.00 | 48 | 1000.2 |
| 20260503215351 | 25 | 328 | 12.9 | 24.1 | 0.00 | 0.00 | 0.00 | 49 | 1000.2 |
| 20260503214356 | 25 | 300 | 12.9 | 22.5 | 0.00 | 0.00 | 0.00 | 49 | 1000.2 |
| 20260503213406 | 25 | 325 | 8.0 | 19.3 | 0.00 | 0.00 | 0.00 | 47 | 1000.2 |
| 20260503212901 | 25 | 286 | 11.3 | 17.7 | 0.00 | 0.00 | 0.00 | 48 | 1000.2 |
| 20260503211853 | 25 | 282 | 11.3 | 20.9 | 0.00 | 0.00 | 0.00 | 49 | 1000.2 |
| 20260503210908 | 24 | 293 | 12.9 | 20.9 | 0.00 | 0.00 | 0.00 | 49 | 1000.2 |
| 20260503205854 | 25 | 284 | 12.9 | 19.3 | 0.00 | 0.00 | 0.00 | 50 | 1000.2 |
| 20260503204859 | 24 | 301 | 12.9 | 20.9 | 0.00 | 0.00 | 0.00 | 50 | 1000.2 |
| 20260503203906 | 24 | 283 | 6.4 | 16.1 | 0.00 | 0.00 | 0.00 | 51 | 1000.2 |
| 20260503203355 | 24 | 271 | 6.4 | 16.1 | 0.00 | 0.00 | 0.00 | 52 | 1000.2 |
| 20260503202356 | 24 | 331 | 6.4 | 17.7 | 0.00 | 0.00 | 0.00 | 50 | 1000.2 |
| 20260503201353 | 23 | 268 | 8.0 | 16.1 | 0.00 | 0.00 | 0.00 | 52 | 1000.2 |
| 20260503200404 | 23 | 282 | 9.7 | 16.1 | 0.00 | 0.00 | 0.00 | 52 | 1000.2 |
| 20260503195848 | 23 | 328 | 6.4 | 17.7 | 0.00 | 0.00 | 0.00 | 55 | 1000.2 |
| 20260503194905 | 23 | 257 | 3.2 | 16.1 | 0.00 | 0.00 | 0.00 | 54 | 1000.2 |
| 20260503193856 | 23 | 245 | 6.4 | 14.5 | 0.00 | 0.00 | 0.00 | 55 | 1000.2 |
| 20260503192907 | 22 | 234 | 4.8 | 16.1 | 0.00 | 0.00 | 0.00 | 56 | 1000.2 |
| 20260503192404 | 22 | 312 | 6.4 | 16.1 | 0.00 | 0.00 | 0.00 | 57 | 1000.2 |
| 20260503191357 | 22 | 298 | 4.8 | 16.1 | 0.00 | 0.00 | 0.00 | 56 | 1000.2 |
| 20260503190400 | 22 | 265 | 9.7 | 17.7 | 0.00 | 0.00 | 0.00 | 58 | 1000.2 |
| 20260503185849 | 21 | 262 | 8.0 | 14.5 | 0.00 | 0.00 | 0.00 | 60 | 1000.2 |
| 20260503184908 | 22 | 313 | 1.6 | 12.9 | 0.00 | 0.00 | 0.00 | 56 | 1000.2 |
| 20260503183856 | 22 | 309 | 3.2 | 14.5 | 0.00 | 0.00 | 0.00 | 54 | 1000.2 |
| 20260503182904 | 22 | 42 | 9.7 | 16.1 | 0.00 | 0.00 | 0.00 | 52 | 1000.2 |
| 20260503181856 | 22 | 348 | 8.0 | 12.9 | 0.00 | 0.00 | 0.00 | 53 | 1000.2 |
| 20260503180859 | 21 | 256 | 1.6 | 8.0 | 0.00 | 0.00 | 0.00 | 58 | 1000.2 |
| 20260503175909 | 21 | 343 | 6.4 | 14.5 | 0.00 | 0.00 | 0.00 | 56 | 1000.2 |
| 20260503175402 | 21 | 331 | 4.8 | 14.5 | 0.00 | 0.00 | 0.00 | 57 | 1000.2 |
| 20260503174407 | 21 | 319 | 8.0 | 17.7 | 0.00 | 0.00 | 0.00 | 54 | 1000.2 |
| 20260503173407 | 21 | 295 | 3.2 | 16.1 | 0.00 | 0.00 | 0.00 | 56 | 1000.2 |
| 20260503172901 | 21 | 279 | 8.0 | 16.1 | 0.00 | 0.00 | 0.00 | 54 | 1000.2 |
| 20260503172158 | 19 | 43 | 3.2 | 12.9 | 0.00 | 0.00 | 0.00 | 65 | 1000.2 |
| 20260503150351 | 14 | 44 | 1.6 | 4.8 | 0.00 | 0.00 | 0.00 | 80 | 1000.2 |
| 20260503130900 | 10 | 9 | 3.2 | 4.8 | 0.00 | 0.00 | 0.00 | 89 | 1000.2 |
| 20260503110444 | 11 | 9 | 1.6 | 4.8 | 0.00 | 0.00 | 0.00 | 86 | 1000.2 |
| 20260503080929 | 12 | 9 | 0.0 | 3.2 | 0.00 | 0.00 | 0.00 | 83 | 1000.2 |
| 20260503080427 | 12 | 9 | 0.0 | 6.4 | 0.00 | 0.00 | 0.00 | 82 | 1000.2 |
| 20260503072924 | 12 | 17 | 0.0 | 0.0 | 0.00 | 0.00 | 0.00 | 83 | 1000.2 |
| 20260503072421 | 12 | 17 | 0.0 | 0.0 | 0.00 | 0.00 | 0.00 | 82 | 1000.2 |
| 20260503071912 | 12 | 17 | 0.0 | 0.0 | 0.00 | 0.00 | 0.00 | 82 | 1000.2 |
| 20260503070928 | 12 | 17 | 0.0 | 0.0 | 0.00 | 0.00 | 0.00 | 81 | 1000.2 |
| 20260503053933 | 14 | 279 | 0.0 | 0.0 | 0.00 | 0.00 | 0.00 | 77 | 1000.2 |
| 20260503053424 | 15 | 279 | 0.0 | 0.0 | 0.00 | 0.00 | 0.00 | 76 | 1000.2 |
| 20260503052446 | 15 | 280 | 0.0 | 0.0 | 0.00 | 0.00 | 0.00 | 75 | 1000.2 |
| 20260503051940 | 15 | 279 | 0.0 | 0.0 | 0.00 | 0.00 | 0.00 | 75 | 1000.2 |
| 20260503050933 | 15 | 273 | 0.0 | 0.0 | 0.00 | 0.00 | 0.00 | 74 | 1000.2 |
| 20260503050430 | 15 | 273 | 0.0 | 0.0 | 0.00 | 0.00 | 0.00 | 75 | 1000.2 |
| 20260503045433 | 15 | 273 | 0.0 | 0.0 | 0.00 | 0.00 | 0.00 | 73 | 1000.2 |
| 20260503044436 | 16 | 273 | 0.0 | 0.0 | 0.00 | 0.00 | 0.00 | 72 | 1000.2 |
| 20260503043432 | 16 | 273 | 0.0 | 0.0 | 0.00 | 0.00 | 0.00 | 73 | 1000.2 |
| 20260503042930 | 16 | 273 | 0.0 | 0.0 | 0.00 | 0.00 | 0.00 | 73 | 1000.2 |
| 20260503041939 | 16 | 273 | 0.0 | 1.6 | 0.00 | 0.00 | 0.00 | 72 | 1000.2 |
| 20260503040933 | 16 | 256 | 0.0 | 1.6 | 0.00 | 0.00 | 0.00 | 73 | 1000.2 |
| 20260503040428 | 16 | 280 | 0.0 | 1.6 | 0.00 | 0.00 | 0.00 | 72 | 1000.2 |
| 20260503035437 | 17 | 278 | 0.0 | 3.2 | 0.00 | 0.00 | 0.00 | 68 | 1000.2 |
| 20260503034439 | 18 | 282 | 0.0 | 4.8 | 0.00 | 0.00 | 0.00 | 65 | 1000.2 |
| 20260503033433 | 18 | 286 | 0.0 | 3.2 | 0.00 | 0.00 | 0.00 | 66 | 1000.2 |
| 20260503032929 | 18 | 283 | 0.0 | 3.2 | 0.00 | 0.00 | 0.00 | 61 | 1000.2 |
| 20260503031934 | 18 | 285 | 1.6 | 4.8 | 0.00 | 0.00 | 0.00 | 62 | 1000.2 |
| 20260503031429 | 19 | 285 | 3.2 | 4.8 | 0.00 | 0.00 | 0.00 | 60 | 1000.2 |
| 20260503030442 | 20 | 286 | 3.2 | 6.4 | 0.00 | 0.00 | 0.00 | 59 | 1000.2 |
| 20260503025937 | 19 | 281 | 3.2 | 6.4 | 0.00 | 0.00 | 0.00 | 60 | 1000.2 |
| 20260503024934 | 21 | 341 | 1.6 | 4.8 | 0.00 | 0.00 | 0.00 | 55 | 1000.2 |
| 20260503024431 | 21 | 5 | 1.6 | 6.4 | 0.00 | 0.00 | 0.00 | 53 | 1000.2 |
| 20260503023932 | 21 | 17 | 3.2 | 8.0 | 0.00 | 0.00 | 0.00 | 51 | 1000.2 |
| 20260503022947 | 21 | 21 | 0.0 | 17.7 | 0.00 | 0.00 | 0.00 | 50 | 1000.2 |
| 20260503022441 | 21 | 44 | 3.2 | 17.7 | 0.00 | 0.00 | 0.00 | 51 | 1000.2 |
| 20260503021936 | 21 | 281 | 3.2 | 9.7 | 0.00 | 0.00 | 0.00 | 51 | 1000.2 |
| 20260503021427 | 21 | 316 | 4.8 | 8.0 | 0.00 | 0.00 | 0.00 | 51 | 1000.2 |
| 20260503020427 | 22 | 261 | 6.4 | 14.5 | 0.00 | 0.00 | 0.00 | 51 | 1000.2 |
| 20260503015923 | 22 | 344 | 4.8 | 14.5 | 0.00 | 0.00 | 0.00 | 51 | 1000.2 |
| 20260503014939 | 22 | 285 | 9.7 | 16.1 | 0.00 | 0.00 | 0.00 | 52 | 1000.2 |
| 20260503014434 | 22 | 49 | 0.0 | 16.1 | 0.00 | 0.00 | 0.00 | 52 | 1000.2 |
| 20260503013927 | 22 | 242 | 3.2 | 16.1 | 0.00 | 0.00 | 0.00 | 53 | 1000.2 |
| 20260503012941 | 22 | 338 | 9.7 | 20.9 | 0.00 | 0.00 | 0.00 | 54 | 1000.2 |
| 20260503011935 | 22 | 11 | 12.9 | 20.9 | 0.00 | 0.00 | 0.00 | 54 | 1000.2 |
| 20260503011433 | 22 | 285 | 8.0 | 17.7 | 0.00 | 0.00 | 0.00 | 56 | 1000.2 |
| 20260503010922 | 22 | 308 | 4.8 | 17.7 | 0.00 | 0.00 | 0.00 | 57 | 1000.2 |
| 20260503005949 | 22 | 270 | 8.0 | 16.1 | 0.00 | 0.00 | 0.00 | 57 | 1000.2 |
| 20260503005443 | 22 | 287 | 9.7 | 17.7 | 0.00 | 0.00 | 0.00 | 57 | 1000.2 |
| 20260503004938 | 22 | 309 | 9.7 | 16.1 | 0.00 | 0.00 | 0.00 | 58 | 1000.2 |
| 20260503004434 | 22 | 285 | 9.7 | 22.5 | 0.00 | 0.00 | 0.00 | 58 | 1000.2 |
| 20260503003436 | 22 | 277 | 9.7 | 24.1 | 0.00 | 0.00 | 0.00 | 58 | 1000.2 |
| 20260503002934 | 22 | 304 | 12.9 | 24.1 | 0.00 | 0.00 | 0.00 | 57 | 1000.2 |
| 20260503001930 | 22 | 287 | 12.9 | 19.3 | 0.00 | 0.00 | 0.00 | 57 | 1000.2 |
| 20260503000935 | 22 | 302 | 8.0 | 16.1 | 0.00 | 0.00 | 0.00 | 57 | 1000.2 |
| 20260502235940 | 22 | 289 | 6.4 | 19.3 | 0.00 | 0.00 | 0.00 | 57 | 1000.2 |
| 20260502234940 | 22 | 278 | 9.7 | 20.9 | 0.00 | 0.00 | 0.00 | 57 | 1000.2 |
| 20260502234424 | 22 | 282 | 8.0 | 19.3 | 0.00 | 0.00 | 0.00 | 56 | 1000.2 |
| 20260502233916 | 22 | 310 | 12.9 | 19.3 | 0.00 | 0.00 | 0.00 | 57 | 1000.2 |
| 20260502232925 | 22 | 294 | 9.7 | 19.3 | 0.00 | 0.00 | 0.00 | 58 | 1000.2 |
| 20260502231938 | 22 | 265 | 8.0 | 17.7 | 0.00 | 0.00 | 0.00 | 57 | 1000.2 |
| 20260502231431 | 22 | 286 | 11.3 | 19.3 | 0.00 | 0.00 | 0.00 | 57 | 1000.2 |
| 20260502230439 | 22 | 260 | 11.3 | 20.9 | 0.00 | 0.00 | 0.00 | 58 | 1000.2 |
| 20260502225936 | 22 | 252 | 14.5 | 20.9 | 0.00 | 0.00 | 0.00 | 57 | 1000.2 |
| 20260502225433 | 22 | 318 | 4.8 | 14.5 | 0.00 | 0.00 | 0.00 | 57 | 1000.2 |